N215U KSYR-

Flight info

Callsign N215U
Flight time N/A
Altitude VFR/025
Route
Aircraft C172/L-VGD/C

Departure

Time 2026-04-29 18:39
Airport Syracuse Hancock International Airport (KSYR)

Arrival

Time N/A
Airport -
Time Latitude Longitude Altitude Speed Heading
2026-04-29 18:33 43.10591 -76.12574 424 ft 0 kts 184°
2026-04-29 18:34 43.10585 -76.12571 421 ft 6 kts 142°
2026-04-29 18:35 43.10625 -76.12537 424 ft 9 kts
2026-04-29 18:35 43.10723 -76.12547 424 ft 12 kts
2026-04-29 18:35 43.10733 -76.12547 424 ft 0 kts 359°
2026-04-29 18:36 43.10741 -76.12548 423 ft 7 kts 357°
2026-04-29 18:36 43.10816 -76.12509 423 ft 16 kts 62°
2026-04-29 18:36 43.10827 -76.12443 423 ft 0 kts 85°
2026-04-29 18:37 43.10827 -76.12436 423 ft 7 kts 87°
2026-04-29 18:37 43.10836 -76.12185 417 ft 45 kts 84°
2026-04-29 18:38 43.10855 -76.11626 413 ft 73 kts 88°
2026-04-29 18:38 43.10885 -76.10850 436 ft 88 kts 87°
2026-04-29 18:38 43.11063 -76.09992 459 ft 98 kts 72°
2026-04-29 18:38 43.11278 -76.09142 591 ft 93 kts 74°
2026-04-29 18:39 43.11479 -76.08304 695 ft 92 kts 76°
2026-04-29 18:39 43.11657 -76.07473 813 ft 89 kts 78°
2026-04-29 18:39 43.11819 -76.06658 932 ft 87 kts 78°
2026-04-29 18:39 43.11971 -76.05856 1064 ft 87 kts 77°
2026-04-29 18:40 43.12121 -76.05044 1184 ft 87 kts 78°
2026-04-29 18:40 43.12268 -76.04245 1310 ft 85 kts 82°
2026-04-29 18:40 43.12408 -76.03457 1457 ft 85 kts 85°
2026-04-29 18:40 43.12547 -76.02679 1591 ft 84 kts 84°
2026-04-29 18:41 43.12960 -76.00360 1760 ft 90 kts 83°
2026-04-29 18:41 43.13107 -75.99517 1806 ft 94 kts 83°
2026-04-29 18:42 43.13267 -75.98622 1857 ft 101 kts 83°
2026-04-29 18:42 43.13432 -75.97683 1889 ft 101 kts 82°
2026-04-29 18:42 43.13596 -75.96758 1925 ft 100 kts 83°
2026-04-29 18:42 43.13760 -75.95828 1952 ft 100 kts 84°
2026-04-29 18:43 43.13925 -75.94900 1973 ft 101 kts 82°
2026-04-29 18:43 43.14092 -75.93951 2009 ft 104 kts 83°
2026-04-29 18:43 43.14263 -75.92984 2031 ft 103 kts 83°
2026-04-29 18:43 43.14433 -75.92023 2063 ft 104 kts 82°
2026-04-29 18:44 43.14603 -75.91062 2090 ft 106 kts 83°
2026-04-29 18:44 43.14776 -75.90078 2120 ft 106 kts 82°
2026-04-29 18:44 43.14951 -75.89086 2145 ft 108 kts 81°
2026-04-29 18:44 43.15128 -75.88085 2173 ft 109 kts 83°
2026-04-29 18:45 43.15307 -75.87068 2204 ft 111 kts 83°
2026-04-29 18:45 43.15485 -75.86051 2226 ft 109 kts 82°
2026-04-29 18:45 43.15722 -75.85071 2249 ft 112 kts 66°
2026-04-29 18:45 43.16128 -75.84148 2275 ft 114 kts 67°
2026-04-29 18:46 43.16524 -75.83218 2300 ft 113 kts 65°
2026-04-29 18:46 43.16920 -75.82287 2324 ft 113 kts 68°
2026-04-29 18:46 43.17312 -75.81364 2348 ft 112 kts 65°
2026-04-29 18:46 43.17707 -75.80431 2372 ft 114 kts 66°
2026-04-29 18:47 43.18101 -75.79498 2398 ft 112 kts 67°
2026-04-29 18:47 43.18484 -75.78593 2424 ft 111 kts 67°
2026-04-29 18:47 43.18866 -75.77689 2444 ft 109 kts 67°
2026-04-29 18:47 43.19245 -75.76793 2468 ft 108 kts 67°
2026-04-29 18:48 43.19621 -75.75906 2480 ft 109 kts 68°
2026-04-29 18:48 43.20002 -75.75002 2485 ft 108 kts 68°
2026-04-29 18:48 43.20379 -75.74110 2486 ft 109 kts 67°
2026-04-29 18:48 43.20762 -75.73199 2487 ft 111 kts 68°
2026-04-29 18:49 43.21143 -75.72291 2490 ft 111 kts 67°
2026-04-29 18:49 43.21532 -75.71371 2488 ft 113 kts 68°
2026-04-29 18:49 43.21922 -75.70446 2494 ft 112 kts 65°
2026-04-29 18:49 43.22314 -75.69513 2494 ft 113 kts 68°
2026-04-29 18:50 43.22708 -75.68589 2498 ft 112 kts 66°
2026-04-29 18:50 43.23099 -75.67655 2496 ft 113 kts 66°
2026-04-29 18:50 43.23494 -75.66712 2500 ft 114 kts 66°
2026-04-29 18:50 43.23897 -75.65743 2495 ft 119 kts 67°
2026-04-29 18:51 43.24314 -75.64751 2494 ft 121 kts 66°
2026-04-29 18:51 43.24739 -75.63760 2492 ft 120 kts 64°
2026-04-29 18:51 43.25154 -75.62768 2492 ft 120 kts 68°
2026-04-29 18:51 43.25572 -75.61777 2488 ft 119 kts 65°
2026-04-29 18:52 43.25987 -75.60785 2492 ft 120 kts 68°
2026-04-29 18:52 43.26400 -75.59798 2498 ft 119 kts 66°
2026-04-29 18:52 43.26813 -75.58815 2487 ft 118 kts 67°
2026-04-29 18:52 43.27218 -75.57851 2491 ft 116 kts 68°
2026-04-29 18:53 43.27486 -75.57212 2488 ft 116 kts 68°
2026-04-29 18:53 43.27892 -75.56252 2490 ft 116 kts 69°
2026-04-29 18:53 43.28295 -75.55285 2437 ft 120 kts 67°
2026-04-29 18:53 43.28720 -75.54261 2324 ft 126 kts 68°
2026-04-29 18:54 43.29301 -75.52873 2161 ft 127 kts 68°
2026-04-29 18:54 43.29601 -75.52159 2089 ft 129 kts 68°
2026-04-29 18:54 43.29881 -75.51024 1965 ft 121 kts 94°
2026-04-29 18:54 43.29744 -75.49931 1861 ft 118 kts 120°
2026-04-29 18:55 43.29273 -75.49036 1736 ft 116 kts 140°
2026-04-29 18:55 43.28706 -75.48249 1607 ft 115 kts 138°
2026-04-29 18:55 43.28145 -75.47453 1425 ft 120 kts 138°
2026-04-29 18:55 43.27552 -75.46619 1163 ft 123 kts 139°
2026-04-29 18:56 43.26943 -75.45762 916 ft 127 kts 139°
2026-04-29 18:56 43.26343 -75.44908 804 ft 118 kts 140°
2026-04-29 18:56 43.25832 -75.44169 814 ft 88 kts 142°
2026-04-29 18:56 43.25481 -75.43663 794 ft 63 kts 144°
2026-04-29 18:57 43.25203 -75.43261 786 ft 53 kts 146°
2026-04-29 18:57 43.24935 -75.42857 710 ft 61 kts 143°
2026-04-29 18:57 43.24624 -75.42423 604 ft 66 kts 144°
2026-04-29 18:57 43.24295 -75.41962 540 ft 65 kts 142°
2026-04-29 18:58 43.24003 -75.41565 510 ft 49 kts 148°